Find Kosmos-2330

NORAD ID: 23792 Int'l Des: 1996-009 Owner: VKS Country: RU operational
LEOCIRCULARPOLAR

Current View

Loading 3D Globe...

About Kosmos-2330

Kosmos-2330 (NORAD 23792) is a satellite launched Feb 19, 1996 by VKS of RU. It operates in LEO, CIRCULAR, POLAR orbit with a mass of 225.00 kg.

Upcoming Passes

Passes for default location (London). Set your location on the main map for personalized predictions.

Altitude History

Loading altitude history...

Two-Line Element Set

1 23792U 96009F 26194.79588624 .00000006 00000-0 -27653-4 0 9992
2 23792 82.5837 326.9774 0011685 23.8598 336.3031 12.60978278398999
Epoch: Jul 13, 2026 • Age: 16 hours

Current Status

Altitude 1432.5 km
Apogee / Perigee N/A
Velocity 7.14 km/s
Sub-Earth Point -10.58°S, 45.46°E
Launch Date Feb 19, 1996
Age 30.3 years
Type other

Technical Details

Classification Payload
Mass 225.00 kg
Dry Mass 225.00 kg
Total Mass 225.00 kg
Length 1.60 m
Diameter 0.80 m
Span 7.00 m
Shape Cyl + Ant
Manufacturer NPOPMR
Bus Type Strela-3
Phase Status In Orbit
Owner/State VKS/RU

Most Searched